Current Weather Conditions by Major Hwy


I-84 West to East [Columbia River Gorge] 500 PM PDT SUN AUG 20 2017 ELEVA CITY SKY/WX TMP DP RH WIND PRES REMARKS 10 ASTORIA, OR MOSUNNY 68 58 70 NW16 30.12F 20 KELSO PTSUNNY 78 59 51 W9 30.07F 40 PORTLAND, OR CLOUDY 79 53 40 NW10 30.04F 30 TROUTDALE, OR CLOUDY 81 52 36 VRB5 30.03F 240 THE DALLES, OR CLOUDY 82 53 36 NW14 29.94F 620 HERMISTON, OR PTSUNNY 85 45 24 VRB6 29.97S 1,480 PENDLETON, OR PTSUNNY 82 39 21 NW8 30.00F 2,710 LA GRANDE NOT AVBL 3,370 BAKER CITY SUNNY 85 39 19 NW13 30.04F 2,190 ONTARIO PTSUNNY 90 33 13 MISG 29.95F
I-90 West to East 500 PM PDT SUN AUG 20 2017 ELEVA CITY SKY/WX TMP DP RH WIND PRES REMARKS 30 SEATAC AIRPORT PTSUNNY 76 48 37 N10 30.11F 1,730 ELLENSBURG CLOUDY 82 50 32 W7 30.00F 1,200 MOSES LAKE CLOUDY 83 41 22 S7 29.99F 1,880 SPOKANE GEIGER CLOUDY 79 35 20 SW10 30.03S
I-82 North West to South East 500 PM PDT SUN AUG 20 2017 ELEVA CITY SKY/WX TMP DP RH WIND PRES REMARKS 1,730 ELLENSBURG CLOUDY 82 50 32 W7 30.00F 1,050 YAKIMA TC FAIR 82 39 21 NW3 29.97F 720 360 PASCO CLOUDY 85 44 23 NE6 29.96F 620 HERMISTON, OR PTSUNNY 85 45 24 VRB6 29.97S
Hwy97 North to South 500 PM PDT SUN AUG 20 2017 ELEVA CITY SKY/WX TMP DP RH WIND PRES REMARKS 850 OMAK PTSUNNY 85 38 18 E3 29.96F 630 WENATCHEE CLOUDY 80 43 26 E10 29.96S 1,730 ELLENSBURG CLOUDY 82 50 32 W7 30.00F 1,050 YAKIMA TC FAIR 82 39 21 NW3 29.97F 1,640 GOLDENDALE* CLOUDY 82 53 36 NW14 29.94F *From Dallesport Airport Elev 240 3,080 REDMOND SUNNY 85 16 7 N15G21 30.05F 4,100 KLAMATH FALLS SUNNY 85 39 19 N8 30.04F
I-5 North to South 500 PM PDT SUN AUG 20 2017 ELEVA CITY SKY/WX TMP DP RH WIND PRES REMARKS 150 BELLINGHAM SUNNY 71 51 49 SE6 30.10S 100 ARLINGTON SUNNY 73 54 51 W14 30.12S 610 EVERETT MOSUNNY 67 55 65 NW9 30.14S 30 SEATAC AIRPORT PTSUNNY 76 48 37 N10 30.11F 200 OLYMPIA MOSUNNY 76 52 43 N5 30.10F 20 KELSO PTSUNNY 78 59 51 W9 30.07F 100 VANCOUVER CLOUDY 79 54 41 NW14G20 30.04F 40 PORTLAND CLOUDY 79 53 40 NW10 30.04F 200 SALEM CLOUDY 82 51 34 N13 30.02F 360 EUGENE PTSUNNY 83 49 30 N23G30 30.02F 510 ROSEBURG SUNNY 87 44 22 N17G25 29.97F 1,300 MEDFORD SUNNY 89 44 20 W8 29.92F SMOKE
Data from:
http://www.wrh.noaa.gov/sew/get.php?pil=RWR&sid=OR&version=0&format=printer
http://www.wrh.noaa.gov/sew/get.php?pil=RWR&sid=WA&version=0&format=printer

Current Observations

Washington State Current Weather Observations   …  Oregon State Current Weather Observation



48 Hour Forecast

Seattle  …  Vancouver  …  Portland
————————————————————————————————————————
Bend  …  Spokane  …  Richland  …  Pendleton  …  Blue Mountains I-84  …  Yakima
————————————————————————————————————————
Goldendale, Washington Higher Elevations  …  Dallesport Airport - Goldendale  …  Bingen - White Salmon - Hood River  …  Index


Top of Page